| time (UTC) | temp F | wind direction | speed MPH | gust MPH | rain 1hr in | rain 24hr in | rain mn in | humidity % | barometer mb |
| 20260504021536 | 53 | 1 | 1.0 | 2.0 | 0.00 | 0.00 | 0.00 | 73 | 1016.2 |
| 20260504020516 | 53 | 340 | 1.0 | 3.0 | 0.00 | 0.00 | 0.00 | 75 | 1016.1 |
| 20260504015516 | 53 | 347 | 1.0 | 2.0 | 0.00 | 0.00 | 0.00 | 73 | 1016.1 |
| 20260504014516 | 54 | 10 | 1.0 | 2.0 | 0.00 | 0.00 | 0.00 | 72 | 1016.0 |
| 20260504013516 | 54 | 22 | 1.0 | 2.0 | 0.00 | 0.00 | 0.00 | 71 | 1015.9 |
| 20260504012517 | 55 | 8 | 1.0 | 2.0 | 0.00 | 0.00 | 0.00 | 71 | 1015.9 |
| 20260504011517 | 55 | 25 | 1.0 | 2.0 | 0.00 | 0.00 | 0.00 | 69 | 1015.8 |
| 20260504010517 | 55 | 18 | 1.0 | 2.0 | 0.00 | 0.00 | 0.00 | 68 | 1015.7 |
| 20260504005537 | 55 | 7 | 1.0 | 2.0 | 0.00 | 0.00 | 0.00 | 67 | 1015.7 |
| 20260504004517 | 55 | 7 | 1.0 | 2.0 | 0.00 | 0.00 | 0.00 | 66 | 1015.5 |
| 20260504003518 | 55 | 14 | 1.0 | 2.0 | 0.00 | 0.00 | 0.00 | 64 | 1015.2 |
| 20260504002518 | 55 | 42 | 1.0 | 2.0 | 0.00 | 0.00 | 0.00 | 62 | 1015.1 |
| 20260504001518 | 56 | 18 | 1.0 | 2.0 | 0.00 | 0.00 | 0.00 | 62 | 1015.0 |
| 20260504000518 | 56 | 54 | 1.0 | 2.0 | 0.00 | 0.00 | 0.00 | 61 | 1015.0 |
| 20260503235518 | 56 | 57 | 1.0 | 2.0 | 0.00 | 0.00 | 0.00 | 61 | 1014.9 |
| 20260503234518 | 57 | 304 | 1.0 | 2.0 | 0.00 | 0.00 | 0.00 | 57 | 1014.9 |
| 20260503233518 | 57 | 271 | 0.0 | 2.0 | 0.00 | 0.00 | 0.00 | 56 | 1014.9 |
| 20260503232519 | 57 | 192 | 1.0 | 2.0 | 0.00 | 0.00 | 0.00 | 58 | 1014.8 |
| 20260503231519 | 57 | 216 | 0.0 | 2.0 | 0.00 | 0.00 | 0.00 | 55 | 1014.7 |
| 20260503230518 | 58 | 300 | 1.0 | 2.0 | 0.00 | 0.00 | 0.00 | 54 | 1014.7 |
| 20260503225516 | 58 | 230 | 0.0 | 2.0 | 0.00 | 0.00 | 0.00 | 53 | 1014.7 |
| 20260503224536 | 58 | 242 | 0.0 | 2.0 | 0.00 | 0.00 | 0.00 | 49 | 1014.7 |
| 20260503223516 | 58 | 257 | 0.0 | 2.0 | 0.00 | 0.00 | 0.00 | 48 | 1014.6 |
| 20260503222536 | 59 | 66 | 0.0 | 1.0 | 0.00 | 0.00 | 0.00 | 48 | 1014.6 |
| 20260503221516 | 59 | 275 | 1.0 | 3.0 | 0.00 | 0.00 | 0.00 | 48 | 1014.6 |
| 20260503220516 | 59 | 299 | 0.0 | 2.0 | 0.00 | 0.00 | 0.00 | 46 | 1014.7 |
| 20260503215517 | 59 | 300 | 0.0 | 2.0 | 0.00 | 0.00 | 0.00 | 46 | 1014.7 |
| 20260503214517 | 59 | 281 | 0.0 | 2.0 | 0.00 | 0.00 | 0.00 | 44 | 1014.6 |
| 20260503213517 | 59 | 293 | 0.0 | 3.0 | 0.00 | 0.00 | 0.00 | 44 | 1014.6 |
| 20260503212517 | 59 | 354 | 0.0 | 2.0 | 0.00 | 0.00 | 0.00 | 45 | 1014.5 |
| 20260503211518 | 59 | 65 | 0.0 | 2.0 | 0.00 | 0.00 | 0.00 | 44 | 1014.5 |
| 20260503210518 | 59 | 58 | 1.0 | 3.0 | 0.00 | 0.00 | 0.00 | 44 | 1014.5 |
| 20260503205518 | 59 | 31 | 1.0 | 3.0 | 0.00 | 0.00 | 0.00 | 42 | 1014.4 |
| 20260503204518 | 59 | 62 | 1.0 | 3.0 | 0.00 | 0.00 | 0.00 | 42 | 1014.3 |
| 20260503203538 | 59 | 15 | 0.0 | 2.0 | 0.00 | 0.00 | 0.00 | 43 | 1014.5 |
| 20260503202518 | 59 | 301 | 1.0 | 4.0 | 0.00 | 0.00 | 0.00 | 41 | 1014.6 |
| 20260503201515 | 60 | 313 | 1.0 | 4.0 | 0.00 | 0.00 | 0.00 | 42 | 1014.7 |
| 20260503200536 | 60 | 277 | 0.0 | 2.0 | 0.00 | 0.00 | 0.00 | 41 | 1014.7 |
| 20260503195516 | 59 | 256 | 1.0 | 2.0 | 0.00 | 0.00 | 0.00 | 42 | 1014.8 |
| 20260503194516 | 59 | 230 | 1.0 | 3.0 | 0.00 | 0.00 | 0.00 | 41 | 1014.8 |
| 20260503193516 | 60 | 217 | 1.0 | 4.0 | 0.00 | 0.00 | 0.00 | 41 | 1014.8 |
| 20260503192516 | 60 | 190 | 1.0 | 4.0 | 0.00 | 0.00 | 0.00 | 42 | 1014.9 |
| 20260503191517 | 60 | 219 | 1.0 | 3.0 | 0.00 | 0.00 | 0.00 | 41 | 1015.0 |
| 20260503190517 | 60 | 197 | 1.0 | 3.0 | 0.00 | 0.00 | 0.00 | 42 | 1015.1 |
| 20260503185537 | 61 | 191 | 1.0 | 2.0 | 0.00 | 0.00 | 0.00 | 40 | 1015.3 |
| 20260503184517 | 61 | 205 | 0.0 | 3.0 | 0.00 | 0.00 | 0.00 | 42 | 1015.3 |
| 20260503183517 | 61 | 204 | 1.0 | 3.0 | 0.00 | 0.00 | 0.00 | 42 | 1015.3 |
| 20260503182517 | 61 | 193 | 1.0 | 4.0 | 0.00 | 0.00 | 0.00 | 42 | 1015.3 |
| 20260503181518 | 61 | 183 | 1.0 | 4.0 | 0.00 | 0.00 | 0.00 | 43 | 1015.4 |
| 20260503180518 | 62 | 217 | 1.0 | 3.0 | 0.00 | 0.00 | 0.00 | 44 | 1015.3 |
| 20260503175518 | 61 | 203 | 1.0 | 4.0 | 0.00 | 0.00 | 0.00 | 44 | 1015.3 |
| 20260503174518 | 61 | 229 | 1.0 | 4.0 | 0.00 | 0.00 | 0.00 | 42 | 1015.3 |
| 20260503173538 | 61 | 201 | 1.0 | 4.0 | 0.00 | 0.00 | 0.00 | 41 | 1015.3 |
| 20260503172519 | 61 | 212 | 1.0 | 4.0 | 0.00 | 0.00 | 0.00 | 41 | 1015.3 |
| 20260503171556 | 61 | 329 | 1.0 | 3.0 | 0.00 | 0.00 | 0.00 | 42 | 1015.4 |
| 20260503170516 | 61 | 340 | 1.0 | 4.0 | 0.00 | 0.00 | 0.00 | 41 | 1015.4 |
| 20260503150518 | 55 | 314 | 1.0 | 3.0 | 0.00 | 0.00 | 0.00 | 54 | 1015.4 |
| 20260503130523 | 50 | 310 | 1.0 | 3.0 | 0.00 | 0.00 | 0.00 | 59 | 1014.9 |
| 20260503110525 | 48 | 260 | 1.0 | 3.0 | 0.00 | 0.00 | 0.00 | 74 | 1013.9 |
| 20260503081527 | 50 | 206 | 1.0 | 3.0 | 0.00 | 0.00 | 0.00 | 72 | 1012.1 |
| 20260503080528 | 50 | 251 | 1.0 | 2.0 | 0.00 | 0.00 | 0.00 | 70 | 1012.0 |
| 20260503072528 | 51 | 246 | 1.0 | 2.0 | 0.00 | 0.00 | 0.00 | 72 | 1011.6 |
| 20260503071528 | 51 | 286 | 1.0 | 2.0 | 0.00 | 0.00 | 0.00 | 71 | 1011.6 |
| 20260503070529 | 51 | 278 | 1.0 | 2.0 | 0.00 | 0.00 | 0.00 | 65 | 1011.5 |
| 20260503054530 | 53 | 336 | 1.0 | 3.0 | 0.00 | 0.00 | 0.00 | 60 | 1011.6 |
| 20260503053530 | 53 | 72 | 2.0 | 4.0 | 0.00 | 0.00 | 0.00 | 59 | 1011.4 |
| 20260503052530 | 53 | 85 | 2.0 | 3.0 | 0.00 | 0.00 | 0.00 | 60 | 1011.5 |
| 20260503051551 | 54 | 107 | 2.0 | 4.0 | 0.00 | 0.00 | 0.00 | 60 | 1011.7 |
| 20260503050530 | 54 | 259 | 1.0 | 3.0 | 0.00 | 0.00 | 0.00 | 58 | 1011.8 |
| 20260503045516 | 54 | 260 | 1.0 | 3.0 | 0.00 | 0.00 | 0.00 | 58 | 1011.9 |
| 20260503044516 | 54 | 275 | 1.0 | 3.0 | 0.00 | 0.00 | 0.00 | 55 | 1011.9 |
| 20260503043516 | 54 | 317 | 1.0 | 3.0 | 0.00 | 0.00 | 0.00 | 56 | 1012.0 |
| 20260503042516 | 55 | 291 | 1.0 | 3.0 | 0.00 | 0.00 | 0.00 | 56 | 1012.0 |
| 20260503041517 | 55 | 329 | 1.0 | 3.0 | 0.00 | 0.00 | 0.00 | 56 | 1012.0 |
| 20260503040517 | 55 | 173 | 1.0 | 2.0 | 0.00 | 0.00 | 0.00 | 56 | 1012.4 |
| 20260503035517 | 55 | 298 | 2.0 | 4.0 | 0.00 | 0.00 | 0.00 | 58 | 1012.1 |
| 20260503034517 | 55 | 272 | 1.0 | 2.0 | 0.00 | 0.00 | 0.00 | 57 | 1012.1 |
| 20260503033517 | 55 | 6 | 1.0 | 4.0 | 0.00 | 0.00 | 0.00 | 58 | 1012.0 |
| 20260503032537 | 55 | 261 | 1.0 | 2.0 | 0.00 | 0.00 | 0.00 | 58 | 1012.2 |
| 20260503031517 | 55 | 273 | 1.0 | 3.0 | 0.00 | 0.00 | 0.00 | 56 | 1012.2 |
| 20260503030518 | 56 | 322 | 1.0 | 2.0 | 0.00 | 0.00 | 0.00 | 56 | 1012.3 |
| 20260503025559 | 56 | 298 | 1.0 | 3.0 | 0.00 | 0.00 | 0.00 | 58 | 1012.1 |
| 20260503024518 | 56 | 277 | 1.0 | 2.0 | 0.00 | 0.00 | 0.00 | 58 | 1012.1 |
| 20260503023519 | 56 | 34 | 1.0 | 3.0 | 0.00 | 0.00 | 0.00 | 57 | 1012.0 |
| 20260503022518 | 56 | 294 | 1.0 | 4.0 | 0.00 | 0.00 | 0.00 | 58 | 1012.0 |